User: anonymous   Login
Location: Unspecified
(0.0000°N, 0.0000°E)
Time: 11:05:55
(UTC+00:00)
Language:

SPEKTR R - Orbit

View from above orbital plane
View from above orbital plane
View from above satellite
View from above satellite

Ground track
Ground track

The orbit data is extracted from the following two-line orbital elements,

1 37755U 11037A   18264.20000000 +.00000083 +00000-0 +00000-0 0  9993
2 37755 051.5880 113.3680 8331057 181.9940 359.9340 00.11829941003008
Epoch (UTC): 21 September 2018 04:48:00
Eccentricity: 0.8331057
inclination: 51.5880°
perigee height: 22876 km
apogee height: 314935 km
right ascension of ascending node: 113.3680°
argument of perigee: 181.9940°
revolutions per day: 0.11829941
mean anomaly at epoch: 359.9340°
orbit number at epoch: 300

The dashed part of the orbit path shows where the satellite is in the earth's shadow,  

DLR